| time (UTC) | temp F | wind direction | speed MPH | gust MPH | rain 1hr in | rain 24hr in | rain mn in | humidity % | barometer mb |
| 20260507180233 | 52 | 240 | 2.0 | 5.0 | 0.00 | 0.14 | 0.04 | 92 | 1013.5 |
| 20260507180006 | 52 | 291 | 3.0 | 7.0 | 0.00 | 0.14 | 0.04 | 93 | 1013.5 |
| 20260507175234 | 52 | 356 | 4.0 | 8.0 | 0.00 | 0.14 | 0.04 | 92 | 1013.5 |
| 20260507174733 | 52 | 324 | 5.0 | 9.0 | 0.00 | 0.14 | 0.04 | 91 | 1013.6 |
| 20260507174233 | 52 | 289 | 5.0 | 10.0 | 0.00 | 0.14 | 0.04 | 91 | 1013.5 |
| 20260507173734 | 52 | 346 | 5.0 | 10.0 | 0.00 | 0.14 | 0.04 | 91 | 1013.5 |
| 20260507173233 | 52 | 304 | 5.0 | 10.0 | 0.00 | 0.14 | 0.04 | 91 | 1013.5 |
| 20260507172733 | 52 | 282 | 4.0 | 9.0 | 0.00 | 0.14 | 0.04 | 91 | 1013.3 |
| 20260507172457 | 52 | 275 | 3.0 | 6.0 | 0.00 | 0.14 | 0.04 | 92 | 1013.1 |
| 20260507171732 | 52 | 348 | 3.0 | 6.0 | 0.00 | 0.14 | 0.04 | 92 | 1013.1 |
| 20260507171230 | 52 | 273 | 3.0 | 7.0 | 0.00 | 0.14 | 0.04 | 92 | 1013.2 |
| 20260507170732 | 52 | 335 | 3.0 | 7.0 | 0.00 | 0.14 | 0.04 | 92 | 1013.1 |
| 20260507170234 | 52 | 264 | 4.0 | 8.0 | 0.00 | 0.14 | 0.04 | 93 | 1013.0 |
| 20260507165733 | 52 | 1 | 4.0 | 8.0 | 0.00 | 0.14 | 0.04 | 92 | 1013.1 |
| 20260507165233 | 52 | 301 | 3.0 | 6.0 | 0.00 | 0.14 | 0.04 | 93 | 1012.9 |
| 20260507164732 | 53 | 317 | 4.0 | 8.0 | 0.00 | 0.14 | 0.04 | 92 | 1013.1 |
| 20260507164230 | 53 | 301 | 4.0 | 9.0 | 0.00 | 0.14 | 0.04 | 92 | 1013.2 |
| 20260507163731 | 52 | 351 | 4.0 | 9.0 | 0.00 | 0.14 | 0.04 | 93 | 1013.1 |
| 20260507163230 | 52 | 343 | 4.0 | 9.0 | 0.00 | 0.14 | 0.04 | 92 | 1013.0 |
| 20260507162728 | 52 | 345 | 4.0 | 9.0 | 0.00 | 0.14 | 0.04 | 92 | 1013.1 |
| 20260507162228 | 52 | 286 | 3.0 | 7.0 | 0.00 | 0.14 | 0.04 | 92 | 1013.1 |
| 20260507161728 | 52 | 293 | 2.0 | 7.0 | 0.00 | 0.14 | 0.04 | 92 | 1013.1 |
| 20260507161228 | 52 | 306 | 2.0 | 5.0 | 0.00 | 0.14 | 0.04 | 92 | 1013.1 |
| 20260507160726 | 52 | 259 | 3.0 | 6.0 | 0.00 | 0.15 | 0.04 | 92 | 1013.0 |
| 20260507160458 | 52 | 347 | 5.0 | 9.0 | 0.00 | 0.15 | 0.04 | 92 | 1013.1 |
| 20260507155723 | 52 | 356 | 5.0 | 9.0 | 0.00 | 0.16 | 0.04 | 92 | 1013.2 |
| 20260507155223 | 52 | 353 | 5.0 | 9.0 | 0.00 | 0.16 | 0.04 | 92 | 1013.0 |
| 20260507154723 | 52 | 333 | 6.0 | 9.0 | 0.00 | 0.16 | 0.04 | 93 | 1012.9 |
| 20260507154223 | 52 | 321 | 5.0 | 10.0 | 0.00 | 0.17 | 0.04 | 93 | 1013.0 |
| 20260507153952 | 52 | 330 | 4.0 | 10.0 | 0.00 | 0.17 | 0.04 | 93 | 1012.8 |
| 20260507153709 | 52 | 347 | 4.0 | 9.0 | 0.00 | 0.17 | 0.04 | 94 | 1012.8 |
| 20260507152718 | 52 | 344 | 4.0 | 9.0 | 0.00 | 0.17 | 0.04 | 93 | 1012.8 |
| 20260507152709 | 52 | 331 | 6.0 | 12.0 | 0.00 | 0.17 | 0.04 | 94 | 1012.8 |
| 20260507151717 | 52 | 5 | 7.0 | 12.0 | 0.00 | 0.17 | 0.04 | 94 | 1012.8 |
| 20260507151214 | 52 | 324 | 5.0 | 12.0 | 0.00 | 0.17 | 0.04 | 93 | 1012.9 |
| 20260507150714 | 52 | 336 | 5.0 | 10.0 | 0.00 | 0.17 | 0.04 | 94 | 1012.8 |
| 20260507150215 | 52 | 3 | 5.0 | 10.0 | 0.00 | 0.17 | 0.04 | 94 | 1012.6 |
| 20260507145715 | 52 | 8 | 5.0 | 10.0 | 0.00 | 0.17 | 0.04 | 94 | 1012.8 |
| 20260507145215 | 52 | 18 | 5.0 | 10.0 | 0.00 | 0.17 | 0.04 | 94 | 1012.6 |
| 20260507144714 | 52 | 7 | 5.0 | 11.0 | 0.00 | 0.17 | 0.04 | 94 | 1012.6 |
| 20260507144215 | 52 | 338 | 6.0 | 13.0 | 0.00 | 0.17 | 0.04 | 94 | 1012.7 |
| 20260507143719 | 52 | 297 | 7.0 | 16.0 | 0.00 | 0.17 | 0.04 | 94 | 1012.8 |
| 20260507143221 | 52 | 303 | 8.0 | 16.0 | 0.00 | 0.17 | 0.04 | 94 | 1012.6 |
| 20260507142719 | 52 | 351 | 7.0 | 13.0 | 0.00 | 0.17 | 0.04 | 94 | 1012.4 |
| 20260507142219 | 53 | 316 | 6.0 | 12.0 | 0.00 | 0.17 | 0.04 | 94 | 1012.4 |
| 20260507141718 | 53 | 348 | 5.0 | 11.0 | 0.00 | 0.17 | 0.04 | 94 | 1012.3 |
| 20260507141444 | 54 | 328 | 4.0 | 8.0 | 0.00 | 0.17 | 0.04 | 95 | 1012.3 |
| 20260507140715 | 54 | 337 | 3.0 | 6.0 | 0.00 | 0.17 | 0.04 | 94 | 1012.2 |
| 20260507140211 | 54 | 328 | 3.0 | 6.0 | 0.00 | 0.17 | 0.04 | 94 | 1012.4 |
| 20260507135935 | 54 | 2 | 4.0 | 10.0 | 0.00 | 0.17 | 0.04 | 94 | 1012.3 |
| 20260507135436 | 54 | 336 | 4.0 | 10.0 | 0.00 | 0.17 | 0.04 | 94 | 1012.6 |
| 20260507134710 | 54 | 345 | 3.0 | 8.0 | 0.00 | 0.17 | 0.04 | 94 | 1012.3 |
| 20260507134210 | 54 | 328 | 3.0 | 8.0 | 0.00 | 0.17 | 0.04 | 94 | 1012.3 |
| 20260507133709 | 54 | 334 | 3.0 | 8.0 | 0.00 | 0.17 | 0.04 | 95 | 1012.0 |
| 20260507133209 | 54 | 341 | 3.0 | 10.0 | 0.00 | 0.17 | 0.04 | 95 | 1012.0 |
| 20260507132710 | 54 | 351 | 3.0 | 10.0 | 0.00 | 0.17 | 0.04 | 94 | 1012.0 |
| 20260507132210 | 54 | 350 | 2.0 | 6.0 | 0.00 | 0.17 | 0.04 | 94 | 1012.0 |
| 20260507131709 | 54 | 302 | 3.0 | 7.0 | 0.00 | 0.17 | 0.04 | 94 | 1012.2 |
| 20260507131209 | 54 | 359 | 2.0 | 7.0 | 0.00 | 0.17 | 0.04 | 94 | 1012.3 |
| 20260507130710 | 54 | 344 | 2.0 | 6.0 | 0.00 | 0.17 | 0.04 | 94 | 1012.3 |
| 20260507130209 | 54 | 299 | 3.0 | 6.0 | 0.00 | 0.17 | 0.04 | 95 | 1012.3 |
| 20260507125930 | 54 | 314 | 3.0 | 6.0 | 0.00 | 0.18 | 0.04 | 94 | 1012.3 |
| 20260507125207 | 54 | 337 | 3.0 | 7.0 | 0.00 | 0.19 | 0.04 | 95 | 1012.2 |
| 20260507124707 | 54 | 304 | 3.0 | 7.0 | 0.01 | 0.20 | 0.04 | 95 | 1012.2 |
| 20260507124208 | 54 | 311 | 2.0 | 5.0 | 0.01 | 0.21 | 0.04 | 95 | 1012.1 |
| 20260507123709 | 54 | 277 | 3.0 | 8.0 | 0.01 | 0.21 | 0.04 | 95 | 1011.8 |
| 20260507123208 | 54 | 336 | 4.0 | 8.0 | 0.01 | 0.21 | 0.04 | 95 | 1011.5 |
| 20260507122708 | 54 | 356 | 3.0 | 7.0 | 0.01 | 0.21 | 0.04 | 95 | 1011.7 |
| 20260507122208 | 54 | 353 | 3.0 | 4.0 | 0.02 | 0.21 | 0.04 | 95 | 1011.8 |
| 20260507121932 | 54 | 330 | 2.0 | 4.0 | 0.02 | 0.21 | 0.04 | 95 | 1011.8 |
| 20260507121211 | 54 | 325 | 2.0 | 4.0 | 0.02 | 0.21 | 0.04 | 94 | 1011.9 |
| 20260507120708 | 54 | 351 | 1.0 | 4.0 | 0.02 | 0.22 | 0.04 | 95 | 1012.2 |
| 20260507120207 | 54 | 14 | 1.0 | 4.0 | 0.02 | 0.22 | 0.04 | 95 | 1012.0 |
| 20260507115706 | 54 | 4 | 1.0 | 3.0 | 0.02 | 0.23 | 0.04 | 95 | 1012.3 |
| 20260507115426 | 54 | 16 | 1.0 | 3.0 | 0.02 | 0.23 | 0.04 | 94 | 1012.3 |
| 20260507114703 | 54 | 295 | 2.0 | 4.0 | 0.01 | 0.22 | 0.03 | 94 | 1012.7 |
| 20260507114203 | 54 | 293 | 2.0 | 4.0 | 0.01 | 0.22 | 0.03 | 94 | 1012.4 |
| 20260507113926 | 54 | 307 | 2.0 | 4.0 | 0.01 | 0.22 | 0.03 | 94 | 1012.3 |
| 20260507113204 | 54 | 296 | 2.0 | 5.0 | 0.01 | 0.22 | 0.03 | 94 | 1012.3 |
| 20260507112702 | 54 | 272 | 2.0 | 5.0 | 0.01 | 0.22 | 0.03 | 94 | 1012.3 |
| 20260507112202 | 54 | 262 | 1.0 | 5.0 | 0.00 | 0.21 | 0.02 | 94 | 1012.1 |
| 20260507111932 | 54 | 304 | 2.0 | 5.0 | 0.00 | 0.21 | 0.02 | 94 | 1012.0 |
| 20260507111203 | 54 | 343 | 2.0 | 5.0 | 0.00 | 0.21 | 0.02 | 94 | 1011.9 |
| 20260507110703 | 54 | 25 | 3.0 | 8.0 | 0.00 | 0.21 | 0.02 | 95 | 1011.8 |
| 20260507110202 | 54 | 307 | 3.0 | 8.0 | 0.00 | 0.21 | 0.02 | 95 | 1011.8 |
| 20260507105704 | 55 | 11 | 2.0 | 5.0 | 0.00 | 0.21 | 0.02 | 95 | 1011.7 |
| 20260507105203 | 55 | 359 | 2.0 | 5.0 | 0.00 | 0.21 | 0.02 | 94 | 1011.5 |
| 20260507104711 | 55 | 311 | 3.0 | 4.0 | 0.00 | 0.21 | 0.02 | 94 | 1011.4 |
| 20260507104209 | 55 | 321 | 4.0 | 9.0 | 0.00 | 0.21 | 0.02 | 95 | 1011.5 |
| 20260507103923 | 55 | 321 | 4.0 | 9.0 | 0.00 | 0.21 | 0.02 | 95 | 1011.3 |
| 20260507103159 | 55 | 349 | 3.0 | 9.0 | 0.00 | 0.21 | 0.02 | 95 | 1011.1 |
| 20260507102659 | 55 | 15 | 3.0 | 5.0 | 0.00 | 0.21 | 0.02 | 95 | 1011.1 |
| 20260507102426 | 55 | 359 | 2.0 | 4.0 | 0.00 | 0.21 | 0.02 | 95 | 1011.3 |
| 20260507101700 | 55 | 289 | 3.0 | 5.0 | 0.00 | 0.21 | 0.02 | 95 | 1011.5 |
| 20260507101421 | 55 | 320 | 4.0 | 9.0 | 0.00 | 0.21 | 0.02 | 95 | 1011.4 |
| 20260507100657 | 55 | 3 | 5.0 | 9.0 | 0.00 | 0.21 | 0.02 | 95 | 1011.3 |
| 20260507100157 | 55 | 346 | 5.0 | 9.0 | 0.00 | 0.21 | 0.02 | 95 | 1011.2 |
| 20260507095916 | 55 | 351 | 5.0 | 9.0 | 0.00 | 0.21 | 0.02 | 95 | 1010.9 |
| 20260507095157 | 55 | 345 | 5.0 | 9.0 | 0.00 | 0.21 | 0.02 | 95 | 1011.1 |
| 20260507094656 | 55 | 320 | 6.0 | 9.0 | 0.00 | 0.21 | 0.02 | 94 | 1011.2 |
| 20260507094158 | 55 | 312 | 7.0 | 12.0 | 0.00 | 0.21 | 0.02 | 94 | 1011.2 |
| 20260507093655 | 56 | 10 | 6.0 | 12.0 | 0.00 | 0.21 | 0.02 | 94 | 1010.9 |
| 20260507093155 | 56 | 350 | 2.0 | 9.0 | 0.00 | 0.21 | 0.02 | 95 | 1010.8 |
| 20260507092938 | 56 | 43 | 2.0 | 6.0 | 0.00 | 0.21 | 0.02 | 95 | 1010.7 |
| 20260507092156 | 56 | 3 | 5.0 | 11.0 | 0.00 | 0.21 | 0.02 | 95 | 1011.0 |
| 20260507091655 | 56 | 25 | 6.0 | 11.0 | 0.01 | 0.21 | 0.02 | 94 | 1010.9 |
| 20260507091201 | 56 | 9 | 6.0 | 9.0 | 0.01 | 0.21 | 0.02 | 95 | 1010.9 |
| 20260507090654 | 56 | 20 | 6.0 | 9.0 | 0.01 | 0.21 | 0.02 | 95 | 1011.0 |
| 20260507090152 | 57 | 30 | 7.0 | 12.0 | 0.01 | 0.21 | 0.02 | 95 | 1011.1 |
| 20260507085659 | 57 | 25 | 7.0 | 12.0 | 0.01 | 0.21 | 0.02 | 95 | 1011.0 |
| 20260507085159 | 58 | 21 | 6.0 | 12.0 | 0.01 | 0.21 | 0.02 | 95 | 1010.9 |
| 20260507084703 | 58 | 17 | 6.0 | 10.0 | 0.01 | 0.21 | 0.02 | 95 | 1011.0 |
| 20260507084159 | 58 | 341 | 6.0 | 10.0 | 0.01 | 0.21 | 0.02 | 95 | 1010.8 |
| 20260507083657 | 59 | 3 | 6.0 | 10.0 | 0.01 | 0.21 | 0.02 | 95 | 1010.6 |
| 20260507083159 | 59 | 346 | 7.0 | 11.0 | 0.01 | 0.21 | 0.02 | 95 | 1010.5 |
| 20260507082655 | 59 | 359 | 6.0 | 11.0 | 0.01 | 0.21 | 0.02 | 95 | 1010.4 |
| 20260507082156 | 60 | 13 | 4.0 | 9.0 | 0.01 | 0.21 | 0.02 | 96 | 1010.4 |
| 20260507081655 | 61 | 347 | 3.0 | 5.0 | 0.00 | 0.20 | 0.01 | 96 | 1010.2 |
| 20260507081155 | 61 | 301 | 3.0 | 6.0 | 0.00 | 0.20 | 0.01 | 96 | 1010.7 |
| 20260507080650 | 61 | 303 | 3.0 | 6.0 | 0.00 | 0.20 | 0.01 | 96 | 1010.9 |
| 20260507080150 | 61 | 270 | 3.0 | 6.0 | 0.00 | 0.20 | 0.01 | 96 | 1010.9 |
| 20260507075649 | 61 | 259 | 3.0 | 6.0 | 0.00 | 0.20 | 0.01 | 96 | 1011.0 |
| 20260507075148 | 61 | 289 | 3.0 | 4.0 | 0.00 | 0.20 | 0.01 | 96 | 1010.8 |
| 20260507074648 | 61 | 303 | 2.0 | 6.0 | 0.00 | 0.20 | 0.01 | 96 | 1010.8 |
| 20260507074148 | 61 | 293 | 3.0 | 6.0 | 0.00 | 0.20 | 0.01 | 96 | 1010.7 |
| 20260507073645 | 61 | 303 | 4.0 | 10.0 | 0.00 | 0.20 | 0.01 | 96 | 1010.6 |
| 20260507073146 | 61 | 351 | 5.0 | 10.0 | 0.00 | 0.20 | 0.01 | 96 | 1010.7 |
| 20260507072642 | 62 | 281 | 3.0 | 10.0 | 0.00 | 0.20 | 0.01 | 96 | 1010.6 |
| 20260507072405 | 62 | 271 | 1.0 | 2.0 | 0.00 | 0.20 | 0.01 | 96 | 1010.6 |
| 20260507071642 | 62 | 283 | 1.0 | 3.0 | 0.00 | 0.20 | 0.01 | 96 | 1010.9 |
| 20260507071404 | 62 | 322 | 2.0 | 4.0 | 0.00 | 0.20 | 0.01 | 96 | 1010.8 |
| 20260507070648 | 62 | 278 | 3.0 | 4.0 | 0.00 | 0.20 | 0.01 | 96 | 1010.7 |
| 20260507070142 | 62 | 245 | 3.0 | 4.0 | 0.00 | 0.20 | 0.01 | 96 | 1011.1 |
| 20260507065908 | 62 | 249 | 3.0 | 4.0 | 0.00 | 0.20 | 0.01 | 96 | 1011.0 |
| 20260507065143 | 62 | 262 | 3.0 | 4.0 | 0.01 | 0.20 | 0.01 | 96 | 1011.0 |
| 20260507064643 | 62 | 271 | 3.0 | 4.0 | 0.01 | 0.20 | 0.01 | 96 | 1010.9 |
| 20260507064144 | 62 | 241 | 3.0 | 5.0 | 0.01 | 0.20 | 0.01 | 96 | 1010.9 |
| 20260507063643 | 62 | 229 | 3.0 | 5.0 | 0.01 | 0.20 | 0.01 | 96 | 1010.9 |
| 20260507063139 | 62 | 235 | 3.0 | 4.0 | 0.01 | 0.20 | 0.01 | 96 | 1010.9 |
| 20260507062639 | 62 | 249 | 3.0 | 6.0 | 0.01 | 0.20 | 0.01 | 96 | 1011.3 |
| 20260507062139 | 62 | 247 | 3.0 | 6.0 | 0.01 | 0.20 | 0.01 | 96 | 1011.4 |
| 20260507061636 | 62 | 289 | 2.0 | 5.0 | 0.01 | 0.20 | 0.01 | 96 | 1011.3 |
| 20260507061135 | 62 | 278 | 2.0 | 4.0 | 0.01 | 0.20 | 0.01 | 96 | 1011.4 |
| 20260507060634 | 62 | 322 | 2.0 | 4.0 | 0.01 | 0.20 | 0.01 | 96 | 1011.4 |
| 20260507060138 | 62 | 266 | 2.0 | 3.0 | 0.01 | 0.20 | 0.01 | 96 | 1011.6 |
| 20260507055632 | 62 | 266 | 2.0 | 3.0 | 0.01 | 0.20 | 0.01 | 96 | 1011.7 |
| 20260507055129 | 62 | 266 | 1.0 | 3.0 | 0.00 | 0.19 | 0.00 | 96 | 1011.6 |
| 20260507054629 | 61 | 236 | 1.0 | 3.0 | 0.00 | 0.19 | 0.00 | 96 | 1011.7 |
| 20260507054349 | 61 | 91 | 0.0 | 2.0 | 0.00 | 0.19 | 0.00 | 96 | 1011.5 |
| 20260507053622 | 61 | 91 | 0.0 | 2.0 | 0.00 | 0.19 | 0.00 | 96 | 1011.3 |
| 20260507053347 | 61 | 91 | 1.0 | 2.0 | 0.00 | 0.19 | 0.00 | 95 | 1011.5 |
| 20260507052618 | 62 | 91 | 1.0 | 2.0 | 0.00 | 0.19 | 0.00 | 95 | 1011.3 |
| 20260507052117 | 62 | 331 | 1.0 | 3.0 | 0.00 | 0.19 | 0.00 | 95 | 1011.5 |
| 20260507051615 | 62 | 14 | 2.0 | 4.0 | 0.00 | 0.19 | 0.00 | 95 | 1011.5 |
| 20260507051348 | 62 | 122 | 2.0 | 4.0 | 0.00 | 0.19 | 0.00 | 95 | 1011.5 |
| 20260507050614 | 62 | 149 | 3.0 | 4.0 | 0.00 | 0.19 | 0.00 | 95 | 1011.6 |
| 20260507050115 | 62 | 114 | 2.0 | 4.0 | 0.00 | 0.19 | 0.00 | 95 | 1011.5 |
| 20260507045619 | 62 | 104 | 1.0 | 3.0 | 0.00 | 0.19 | 0.00 | 95 | 1011.5 |
| 20260507045117 | 62 | 226 | 1.0 | 3.0 | 0.00 | 0.19 | 0.00 | 95 | 1012.0 |
| 20260507044613 | 62 | 238 | 1.0 | 3.0 | 0.00 | 0.19 | 0.00 | 95 | 1012.0 |
| 20260507044114 | 62 | 307 | 1.0 | 4.0 | 0.00 | 0.19 | 0.00 | 95 | 1012.0 |
| 20260507043612 | 62 | 307 | 2.0 | 5.0 | 0.00 | 0.19 | 0.00 | 95 | 1012.0 |
| 20260507043113 | 62 | 237 | 2.0 | 5.0 | 0.00 | 0.19 | 0.00 | 95 | 1012.4 |
| 20260507042612 | 62 | 195 | 2.0 | 5.0 | 0.00 | 0.19 | 0.00 | 95 | 1012.2 |
| 20260507042114 | 62 | 197 | 2.0 | 5.0 | 0.00 | 0.19 | 0.00 | 95 | 1012.3 |
| 20260507041613 | 62 | 209 | 2.0 | 5.0 | 0.00 | 0.19 | 0.00 | 95 | 1012.6 |
| 20260507041109 | 62 | 231 | 3.0 | 7.0 | 0.00 | 0.19 | 0.00 | 95 | 1012.4 |
| 20260507040605 | 62 | 212 | 4.0 | 7.0 | 0.00 | 0.19 | 0.00 | 95 | 1012.4 |
| 20260507040106 | 62 | 224 | 4.0 | 7.0 | 0.00 | 0.19 | 0.00 | 95 | 1012.6 |
| 20260507035602 | 62 | 222 | 4.0 | 8.0 | 0.00 | 0.19 | 0.19 | 95 | 1012.7 |
| 20260507035103 | 62 | 195 | 4.0 | 8.0 | 0.00 | 0.19 | 0.19 | 95 | 1012.7 |
| 20260507034602 | 62 | 154 | 4.0 | 8.0 | 0.00 | 0.19 | 0.19 | 95 | 1012.6 |
| 20260507034104 | 62 | 243 | 5.0 | 9.0 | 0.00 | 0.19 | 0.19 | 95 | 1012.7 |
| 20260507033602 | 62 | 179 | 4.0 | 9.0 | 0.00 | 0.19 | 0.19 | 95 | 1012.2 |
| 20260507033108 | 62 | 160 | 4.0 | 8.0 | 0.00 | 0.19 | 0.19 | 95 | 1012.3 |
| 20260507032611 | 62 | 193 | 3.0 | 7.0 | 0.00 | 0.19 | 0.19 | 95 | 1012.6 |
| 20260507032108 | 62 | 229 | 3.0 | 6.0 | 0.00 | 0.19 | 0.19 | 95 | 1013.0 |
| 20260507031606 | 62 | 211 | 3.0 | 6.0 | 0.00 | 0.19 | 0.19 | 95 | 1012.7 |
| 20260507031105 | 62 | 180 | 2.0 | 6.0 | 0.00 | 0.19 | 0.19 | 95 | 1012.7 |
| 20260507030817 | 62 | 170 | 2.0 | 4.0 | 0.00 | 0.19 | 0.19 | 95 | 1012.6 |
| 20260507030114 | 62 | 245 | 2.0 | 5.0 | 0.00 | 0.19 | 0.19 | 94 | 1012.7 |
| 20260507025557 | 62 | 221 | 1.0 | 5.0 | 0.01 | 0.19 | 0.19 | 94 | 1012.4 |
| 20260507025056 | 62 | 233 | 1.0 | 4.0 | 0.02 | 0.19 | 0.19 | 94 | 1012.3 |
| 20260507024557 | 62 | 233 | 1.0 | 4.0 | 0.02 | 0.19 | 0.19 | 94 | 1012.2 |
| 20260507024054 | 62 | 315 | 2.0 | 6.0 | 0.04 | 0.19 | 0.19 | 94 | 1012.4 |
| 20260507023552 | 62 | 181 | 4.0 | 7.0 | 0.05 | 0.19 | 0.19 | 94 | 1012.3 |
| 20260507023055 | 62 | 174 | 4.0 | 7.0 | 0.05 | 0.19 | 0.19 | 94 | 1012.1 |
| 20260507022556 | 62 | 172 | 3.0 | 5.0 | 0.05 | 0.19 | 0.19 | 94 | 1012.0 |
| 20260507022052 | 62 | 207 | 3.0 | 7.0 | 0.05 | 0.19 | 0.19 | 94 | 1012.1 |
| 20260507021554 | 62 | 203 | 2.0 | 7.0 | 0.05 | 0.19 | 0.19 | 94 | 1012.3 |
| 20260507021050 | 62 | 183 | 3.0 | 5.0 | 0.05 | 0.19 | 0.19 | 94 | 1012.3 |
| 20260507020548 | 62 | 166 | 2.0 | 5.0 | 0.06 | 0.19 | 0.19 | 94 | 1012.6 |
| 20260507020050 | 62 | 196 | 3.0 | 7.0 | 0.06 | 0.19 | 0.19 | 93 | 1012.8 |
| 20260507015550 | 62 | 206 | 4.0 | 11.0 | 0.05 | 0.18 | 0.18 | 93 | 1013.0 |
| 20260507015529 | 63 | 178 | 5.0 | 11.0 | 0.06 | 0.17 | 0.17 | 93 | 1013.7 |
| 20260507015444 | 62 | 189 | 5.0 | 11.0 | 0.05 | 0.17 | 0.17 | 93 | 1013.3 |
| 20260507014319 | 63 | 225 | 4.0 | 9.0 | 0.04 | 0.15 | 0.16 | 93 | 1013.6 |
| 20260507013545 | 63 | 231 | 4.0 | 8.0 | 0.04 | 0.14 | 0.14 | 93 | 1013.7 |
| 20260507013044 | 63 | 228 | 3.0 | 8.0 | 0.04 | 0.14 | 0.14 | 92 | 1013.6 |
| 20260507012546 | 63 | 196 | 3.0 | 7.0 | 0.04 | 0.14 | 0.14 | 92 | 1013.3 |
| 20260507012045 | 63 | 243 | 4.0 | 7.0 | 0.04 | 0.14 | 0.14 | 92 | 1013.2 |
| 20260507011543 | 63 | 193 | 4.0 | 7.0 | 0.05 | 0.14 | 0.14 | 92 | 1013.0 |
| 20260507011534 | 63 | 180 | 3.0 | 6.0 | 0.05 | 0.14 | 0.14 | 91 | 1012.8 |
| 20260507010544 | 63 | 225 | 4.0 | 7.0 | 0.04 | 0.13 | 0.13 | 91 | 1012.7 |
| 20260507010041 | 63 | 219 | 5.0 | 9.0 | 0.04 | 0.13 | 0.13 | 91 | 1012.6 |
| 20260507005540 | 64 | 208 | 5.0 | 9.0 | 0.04 | 0.13 | 0.13 | 90 | 1012.4 |
| 20260507005049 | 64 | 211 | 4.0 | 8.0 | 0.03 | 0.12 | 0.12 | 90 | 1012.4 |
| 20260507004544 | 64 | 175 | 4.0 | 8.0 | 0.02 | 0.11 | 0.11 | 89 | 1012.6 |
| 20260507004045 | 65 | 238 | 3.0 | 7.0 | 0.02 | 0.11 | 0.11 | 89 | 1012.9 |
| 20260507003540 | 65 | 220 | 4.0 | 8.0 | 0.01 | 0.10 | 0.10 | 88 | 1012.8 |
| 20260507003039 | 65 | 194 | 5.0 | 8.0 | 0.01 | 0.10 | 0.10 | 88 | 1012.7 |
| 20260507002802 | 65 | 264 | 4.0 | 8.0 | 0.01 | 0.10 | 0.10 | 88 | 1012.4 |
| 20260507002039 | 65 | 207 | 5.0 | 12.0 | 0.01 | 0.10 | 0.10 | 87 | 1012.0 |
| 20260507001538 | 65 | 179 | 6.0 | 12.0 | 0.00 | 0.09 | 0.09 | 87 | 1011.9 |
| 20260507001038 | 66 | 201 | 7.0 | 11.0 | 0.00 | 0.09 | 0.09 | 86 | 1011.7 |
| 20260507000539 | 66 | 196 | 7.0 | 15.0 | 0.00 | 0.09 | 0.09 | 86 | 1011.5 |
| 20260507000038 | 67 | 205 | 6.0 | 15.0 | 0.00 | 0.09 | 0.09 | 85 | 1011.6 |
| 20260506235539 | 67 | 201 | 5.0 | 10.0 | 0.00 | 0.09 | 0.09 | 85 | 1011.4 |
| 20260506235038 | 67 | 166 | 5.0 | 10.0 | 0.00 | 0.09 | 0.09 | 85 | 1011.7 |
| 20260506234540 | 67 | 199 | 5.0 | 10.0 | 0.00 | 0.09 | 0.09 | 85 | 1011.8 |
| 20260506234534 | 67 | 235 | 6.0 | 11.0 | 0.00 | 0.09 | 0.09 | 84 | 1011.8 |
| 20260506233534 | 67 | 207 | 6.0 | 11.0 | 0.00 | 0.09 | 0.09 | 84 | 1011.7 |
| 20260506233306 | 68 | 233 | 6.0 | 16.0 | 0.00 | 0.09 | 0.09 | 84 | 1011.7 |
| 20260506232758 | 68 | 245 | 6.0 | 16.0 | 0.00 | 0.09 | 0.09 | 84 | 1011.6 |
| 20260506232306 | 68 | 297 | 6.0 | 14.0 | 0.00 | 0.09 | 0.09 | 83 | 1011.5 |
| 20260506231805 | 68 | 203 | 6.0 | 14.0 | 0.00 | 0.09 | 0.09 | 83 | 1011.3 |
| 20260506231038 | 69 | 139 | 6.0 | 11.0 | 0.00 | 0.09 | 0.09 | 83 | 1011.7 |
| 20260506230534 | 69 | 178 | 6.0 | 10.0 | 0.00 | 0.09 | 0.09 | 83 | 1011.6 |
| 20260506230034 | 69 | 212 | 5.0 | 10.0 | 0.00 | 0.09 | 0.09 | 83 | 1011.6 |
| 20260506225532 | 69 | 235 | 3.0 | 9.0 | 0.00 | 0.09 | 0.09 | 84 | 1011.4 |
| 20260506225033 | 69 | 218 | 3.0 | 7.0 | 0.00 | 0.09 | 0.09 | 84 | 1011.3 |
| 20260506225026 | 69 | 173 | 3.0 | 6.0 | 0.00 | 0.09 | 0.09 | 85 | 1011.3 |
| 20260506224032 | 69 | 226 | 4.0 | 7.0 | 0.00 | 0.09 | 0.09 | 84 | 1011.4 |
| 20260506223754 | 69 | 189 | 5.0 | 9.0 | 0.00 | 0.09 | 0.09 | 83 | 1011.6 |
| 20260506223029 | 70 | 192 | 5.0 | 9.0 | 0.00 | 0.09 | 0.09 | 83 | 1011.6 |
| 20260506222528 | 70 | 205 | 4.0 | 9.0 | 0.00 | 0.09 | 0.09 | 83 | 1011.5 |
| 20260506222028 | 70 | 221 | 3.0 | 5.0 | 0.00 | 0.09 | 0.09 | 84 | 1011.4 |
| 20260506221529 | 70 | 231 | 3.0 | 5.0 | 0.00 | 0.09 | 0.09 | 84 | 1011.2 |
| 20260506221305 | 70 | 198 | 3.0 | 5.0 | 0.00 | 0.09 | 0.09 | 84 | 1010.9 |
| 20260506220528 | 69 | 255 | 4.0 | 7.0 | 0.00 | 0.09 | 0.09 | 83 | 1011.0 |
| 20260506220029 | 70 | 224 | 4.0 | 9.0 | 0.00 | 0.09 | 0.09 | 82 | 1011.0 |
| 20260506215528 | 70 | 183 | 5.0 | 9.0 | 0.00 | 0.09 | 0.09 | 82 | 1011.0 |
| 20260506215036 | 70 | 191 | 4.0 | 9.0 | 0.00 | 0.09 | 0.09 | 82 | 1011.4 |
| 20260506214533 | 70 | 172 | 5.0 | 10.0 | 0.00 | 0.09 | 0.09 | 83 | 1011.4 |
| 20260506214032 | 70 | 207 | 4.0 | 11.0 | 0.00 | 0.09 | 0.09 | 81 | 1011.4 |
| 20260506213531 | 70 | 189 | 3.0 | 11.0 | 0.00 | 0.09 | 0.09 | 81 | 1011.4 |
| 20260506213249 | 70 | 221 | 4.0 | 8.0 | 0.00 | 0.09 | 0.09 | 80 | 1011.5 |
| 20260506212743 | 70 | 270 | 5.0 | 9.0 | 0.00 | 0.09 | 0.09 | 79 | 1011.7 |
| 20260506212305 | 71 | 238 | 5.0 | 9.0 | 0.00 | 0.09 | 0.09 | 79 | 1011.8 |
| 20260506212024 | 71 | 203 | 4.0 | 9.0 | 0.00 | 0.09 | 0.09 | 79 | 1011.7 |
| 20260506211244 | 71 | 263 | 7.0 | 15.0 | 0.00 | 0.09 | 0.09 | 78 | 1011.6 |
| 20260506210525 | 71 | 245 | 8.0 | 15.0 | 0.00 | 0.09 | 0.09 | 78 | 1011.6 |
| 20260506210024 | 71 | 245 | 9.0 | 16.0 | 0.00 | 0.09 | 0.09 | 77 | 1011.7 |
| 20260506205526 | 71 | 259 | 7.0 | 16.0 | 0.00 | 0.09 | 0.09 | 77 | 1011.5 |
| 20260506205025 | 71 | 221 | 6.0 | 16.0 | 0.00 | 0.09 | 0.09 | 78 | 1011.7 |
| 20260506204525 | 72 | 221 | 7.0 | 16.0 | 0.00 | 0.09 | 0.09 | 78 | 1011.8 |
| 20260506204023 | 72 | 213 | 8.0 | 16.0 | 0.00 | 0.09 | 0.09 | 79 | 1011.8 |
| 20260506203523 | 71 | 245 | 9.0 | 16.0 | 0.00 | 0.09 | 0.09 | 80 | 1011.8 |
| 20260506203024 | 71 | 262 | 9.0 | 18.0 | 0.00 | 0.09 | 0.09 | 79 | 1011.9 |
| 20260506202524 | 71 | 251 | 8.0 | 18.0 | 0.00 | 0.09 | 0.09 | 78 | 1011.6 |
| 20260506202022 | 71 | 228 | 8.0 | 16.0 | 0.00 | 0.09 | 0.09 | 78 | 1011.6 |
| 20260506201520 | 71 | 233 | 9.0 | 16.0 | 0.00 | 0.09 | 0.09 | 78 | 1011.6 |
| 20260506201019 | 71 | 246 | 8.0 | 15.0 | 0.00 | 0.09 | 0.09 | 77 | 1011.6 |
| 20260506200518 | 71 | 214 | 7.0 | 15.0 | 0.00 | 0.09 | 0.09 | 77 | 1011.4 |
| 20260506200019 | 71 | 232 | 8.0 | 15.0 | 0.00 | 0.09 | 0.09 | 77 | 1011.5 |
| 20260506195745 | 71 | 230 | 8.0 | 15.0 | 0.00 | 0.09 | 0.09 | 76 | 1011.7 |
| 20260506195016 | 72 | 228 | 8.0 | 15.0 | 0.00 | 0.09 | 0.09 | 76 | 1011.6 |
| 20260506194515 | 72 | 239 | 9.0 | 15.0 | 0.00 | 0.09 | 0.09 | 77 | 1011.7 |
| 20260506194019 | 71 | 244 | 9.0 | 20.0 | 0.00 | 0.09 | 0.09 | 76 | 1011.8 |
| 20260506193518 | 71 | 216 | 9.0 | 20.0 | 0.00 | 0.09 | 0.09 | 77 | 1011.8 |
| 20260506193019 | 71 | 236 | 7.0 | 14.0 | 0.00 | 0.09 | 0.09 | 76 | 1012.1 |
| 20260506193006 | 72 | 203 | 7.0 | 19.0 | 0.00 | 0.09 | 0.09 | 77 | 1012.3 |
| 20260506192228 | 72 | 228 | 9.0 | 19.0 | 0.00 | 0.09 | 0.09 | 76 | 1012.2 |
| 20260506191510 | 72 | 243 | 10.0 | 21.0 | 0.00 | 0.09 | 0.09 | 76 | 1012.2 |
| 20260506191346 | 72 | 257 | 12.0 | 21.0 | 0.00 | 0.09 | 0.09 | 74 | 1012.2 |
| 20260506191337 | 72 | 197 | 12.0 | 21.0 | 0.00 | 0.09 | 0.09 | 74 | 1012.0 |
| 20260506190001 | 72 | 260 | 11.0 | 20.0 | 0.00 | 0.09 | 0.09 | 74 | 1011.8 |
| 20260506185457 | 72 | 282 | 9.0 | 18.0 | 0.00 | 0.09 | 0.09 | 76 | 1011.9 |
| 20260506184957 | 72 | 253 | 7.0 | 14.0 | 0.00 | 0.09 | 0.09 | 78 | 1011.8 |
| 20260506184459 | 72 | 193 | 6.0 | 12.0 | 0.00 | 0.09 | 0.09 | 79 | 1011.7 |
| 20260506184436 | 72 | 241 | 7.0 | 16.0 | 0.00 | 0.09 | 0.09 | 78 | 1011.7 |
| 20260506183456 | 71 | 205 | 9.0 | 16.0 | 0.00 | 0.09 | 0.09 | 79 | 1011.7 |
| 20260506182957 | 72 | 240 | 8.0 | 16.0 | 0.00 | 0.09 | 0.09 | 77 | 1011.7 |
| 20260506182515 | 71 | 247 | 9.0 | 17.0 | 0.00 | 0.09 | 0.09 | 80 | 1011.7 |
| 20260506182459 | 72 | 228 | 7.0 | 16.0 | 0.00 | 0.09 | 0.09 | 79 | 1011.6 |
| 20260506181454 | 71 | 237 | 8.0 | 17.0 | 0.00 | 0.09 | 0.09 | 80 | 1011.7 |
| 20260506180953 | 71 | 199 | 7.0 | 15.0 | 0.00 | 0.09 | 0.09 | 82 | 1011.8 |